Location: Oberwangen
(47.4286°N, 8.9679°E)
Time: 23:33:29
(UTC+00:00)

SL-16 R/B - Pass Details

Date: 20 June 2021
Orbit: 842 x 847 km, 71.0° (Epoch: 23 July)

Event Time Altitude Azimuth Distance (km) Brightness Sun altitude
Exits shadow 22:23:43 28° 144° (SE) 1,530 3.0 -17.8°
Maximum altitude 22:25:38 36° 106° (ESE) 1,315 2.9 -17.8°
Drops below altitude 10° 22:30:45 10° 42° (NE) 2,473 5.1 -18.1°
Sets 22:33:22 0° 34° (NE) 3,412 6.0 -18.2°
